Change the Weather History Date:

Wednesday, July 10, 2013

  Actual Average Record
Temperature  
Mean Temperature 64 °F 68 °F  
Max Temperature 78 °F 84 °F 101 °F (2002)
Min Temperature 50 °F 52 °F 44 °F (2009)
Degree Days  
Heating Degree Days 1    
Month to date heating degree days 1  
Since 1 June heating degree days 38  
Since 1 July heating degree days 1  
Cooling Degree Days 0    
Month to date cooling degree days 56  
Year to date cooling degree days 211  
Since 1 June cooling degree days 156  
Growing Degree Days 12 (Base 50)    
Moisture  
Dew Point 51 °F    
Average Humidity 71    
Maximum Humidity 100    
Minimum Humidity 41    
Precipitation  
Precipitation 0.00 in 0.00 in 0.00 in (2015)
Month to date precipitation 0.00 0.01  
Year to date precipitation 6.52 22.10  
Since 1 July precipitation 0.00 0.01  
Sea Level Pressure  
Sea Level Pressure 29.94 in    
Wind  
Wind Speed 7 mph (SSE)    
Max Wind Speed 15 mph    
Max Gust Speed 20 mph    
Visibility 8 miles    
Events      
T = Trace of Precipitation, MM = Missing Value Source: NWS Daily Summary

Daily Weather History Graph

Daily Weather History Graph

Search for Another Location

Airport or City:

Trip Planner

Search our weather history database for the weather conditions in past years. The results will help you decide how hot, cold, wet, or windy it might be!

Date:

Astronomy

Jul. 10, 2013 Rise Set
Actual Time 5:56 AM PDT 8:36 PM PDT
Civil Twilight 5:24 AM PDT 9:08 PM PDT
Nautical Twilight 4:45 AM PDT 9:46 PM PDT
Astronomical Twilight 4:02 AM PDT 10:30 PM PDT
Moon 8:19 AM PDT (7/10) 9:52 PM PDT (7/10)
Length of Visible Light 15h 43m
Length of Day
14h 40m
Waxing Crescent, 6% of the Moon is Illuminated
Jul 10
Waxing Crescent
Jul 15
First Quarter
Jul 22
Full
Jul 29
Last Quarter
Aug 6
New

Hourly Weather History & Observations

Time (PDT) Temp. Dew Point Humidity Pressure Visibility Wind Dir Wind Speed Gust Speed Precip Events Conditions
12:49 AM 53.6 °F 50.0 °F 88% 29.98 in 10.0 mi SSE 5.8 mph - N/A   Scattered Clouds
12:53 AM 53.1 °F 50.0 °F 89% 29.96 in 10.0 mi SSE 5.8 mph - N/A   Scattered Clouds
1:14 AM 53.6 °F 51.8 °F 94% 29.98 in 10.0 mi SE 4.6 mph - N/A   Mostly Cloudy
1:42 AM 51.8 °F 51.8 °F 100% 29.97 in 10.0 mi ESE 3.5 mph - N/A   Overcast
1:53 AM 52.0 °F 51.1 °F 97% 29.94 in 10.0 mi ESE 3.5 mph - N/A   Overcast
2:53 AM 52.0 °F 51.1 °F 97% 29.94 in 3.0 mi Calm Calm - N/A   Overcast
3:13 AM 51.8 °F 51.8 °F 100% 29.96 in 1.8 mi South 4.6 mph - N/A   Overcast
3:44 AM 51.8 °F 51.8 °F 100% 29.96 in 2.0 mi SSE 5.8 mph - N/A   Overcast
3:53 AM 51.1 °F 50.0 °F 96% 29.94 in 2.0 mi SE 4.6 mph - N/A   Overcast
4:22 AM 51.8 °F 50.0 °F 94% 29.97 in 9.0 mi South 4.6 mph - N/A   Overcast
4:53 AM 51.1 °F 48.9 °F 92% 29.96 in 10.0 mi South 5.8 mph - N/A   Overcast
5:53 AM 50.0 °F 48.9 °F 96% 29.96 in 7.0 mi SE 3.5 mph - N/A   Overcast
6:53 AM 51.1 °F 48.9 °F 92% 29.96 in 2.5 mi South 3.5 mph - N/A   Overcast
7:53 AM 52.0 °F 48.9 °F 89% 29.97 in 3.0 mi Calm Calm - N/A   Overcast
8:28 AM 53.6 °F 48.2 °F 82% 29.99 in 10.0 mi Calm Calm - N/A   Overcast
8:53 AM 54.0 °F 50.0 °F 86% 29.97 in 10.0 mi Variable 4.6 mph - N/A   Mostly Cloudy
9:33 AM 55.4 °F 50.0 °F 82% 29.98 in 10.0 mi South 3.5 mph - N/A   Scattered Clouds
9:53 AM 59.0 °F 50.0 °F 72% 29.96 in 10.0 mi South 3.5 mph - N/A   Scattered Clouds
10:53 AM 66.0 °F 52.0 °F 60% 29.95 in 10.0 mi Variable 3.5 mph - N/A   Partly Cloudy
11:53 AM 71.1 °F 54.0 °F 55% 29.94 in 10.0 mi South 5.8 mph - N/A   Clear
12:53 PM 75.0 °F 54.0 °F 48% 29.93 in 10.0 mi South 8.1 mph - N/A   Clear
1:53 PM 75.9 °F 53.1 °F 45% 29.92 in 10.0 mi South 11.5 mph - N/A   Clear
2:53 PM 75.9 °F 50.0 °F 40% 29.91 in 10.0 mi South 13.8 mph - N/A   Clear
3:53 PM 75.9 °F 50.0 °F 40% 29.89 in 10.0 mi SSE 12.7 mph - N/A   Clear
4:53 PM 73.9 °F 52.0 °F 46% 29.89 in 10.0 mi SSE 11.5 mph - N/A   Clear
5:53 PM 69.1 °F 51.1 °F 53% 29.88 in 10.0 mi SSE 11.5 mph - N/A   Clear
6:53 PM 64.9 °F 50.0 °F 58% 29.87 in 10.0 mi SSE 12.7 mph - N/A   Clear
7:53 PM 59.0 °F 51.1 °F 75% 29.89 in 10.0 mi SSE 9.2 mph - N/A   Clear
8:53 PM 53.1 °F 50.0 °F 89% 29.90 in 10.0 mi SE 8.1 mph - N/A   Clear
9:11 PM 53.6 °F 50.0 °F 88% 29.92 in 10.0 mi SE 9.2 mph - N/A   Partly Cloudy
9:25 PM 53.6 °F 50.0 °F 88% 29.93 in 10.0 mi SSE 8.1 mph - N/A   Mostly Cloudy
9:53 PM 53.1 °F 50.0 °F 89% 29.92 in 10.0 mi SSE 9.2 mph - N/A   Overcast
10:53 PM 52.0 °F 48.9 °F 89% 29.93 in 10.0 mi SSE 6.9 mph - N/A   Overcast
11:53 PM 52.0 °F 50.0 °F 93% 29.93 in 10.0 mi South 5.8 mph - N/A   Overcast